Torna al catalogo

COSMOS 397 DEB

AttivoLEO
NORAD 5016·DEBRIS·🇷🇺 Russia

Lanciato Feb 25, 1971 da Baikonur Cosmodrome

Loading…

Prossimi Passaggi

TLE

Source: Space-Track
1 05016U 71015K   26229.86925274  .00000777  00000-0  25614-3 0  9992
2 05016  65.8141 282.7579 0638222  51.1919 314.4375 13.65639089661626

Traccia COSMOS 397 DEB in tempo reale con AllMySat

Download on the App Store